Flag for Morocco Weather past 2 weeks in Marrakech, Morocco

Now
81 °F

Clear.


Feels Like: 81 °F
Forecast: N/A
Wind: 10 mph from North

Location: Marrakech Airport

Current Time: Jul 23, 2014 at 9:06:56 PM

Latest Report: Jul 23, 2014 at 8:30 PM


Visibility: 10 mi

Pressure: 29.98 "Hg

Humidity: 48%

Dew point: 59 °F

Location of MarrakechLocation

Historic Weather in Marrakech — Graph

°F

Marrakech temperature yesterday

Maximum temperature yesterday: 99 °F (at 5:00 PM)
Minimum temperature yesterday: 68 °F (at 5:00 AM)
Average temperature yesterday: 80 °F

Past Weeks' High & Low Weather Summary

 TemperatureHumidityPressure
High109 °F (Jul 15, 4:00 PM)88% (Jul 12, 3:30 AM)30.12 "Hg (Jul 12, 3:30 AM)
Low64 °F (Jul 20, 6:00 AM)12% (Jul 15, 4:00 PM)29.86 "Hg (Jul 15, 5:00 PM)
Average84 °F46%30.02 "Hg
* Reported Jul 8 8:00 PM — Jul 23 8:00 PM, Marrakech, Weather by CustomWeather, © 2014

Note: Actual official high and low records may vary slightly from our data, if they occured in-between our weather recording intervals... More about our weather records

Advertising

Marrakech weather history for previous 24 hours

 ConditionsComfort  
Time TempWeatherWind HumidityBarometerVisibility
8:00 PM
Jul 23
82 °FClear.13 mph45%29.95 "Hg10 mi
7:00 PM86 °FPassing clouds.14 mph40%29.95 "HgN/A
6:30 PM91 °FPassing clouds.6 mph32%29.92 "HgN/A
6:00 PM91 °FPassing clouds.6 mph30%29.92 "HgN/A
5:30 PM91 °FSunny.3 mph30%29.92 "Hg10 mi
5:00 PM91 °FPassing clouds.8 mph30%29.92 "HgN/A
4:30 PM91 °FPassing clouds.5 mph32%29.92 "HgN/A
4:00 PM91 °FPassing clouds.6 mph32%29.92 "HgN/A
3:30 PM91 °FSunny.5 mph30%29.92 "Hg10 mi
3:00 PM91 °FPassing clouds.7 mph30%29.92 "HgN/A
2:30 PM90 °FPassing clouds.7 mph29%29.92 "HgN/A
2:00 PM90 °FPassing clouds.6 mph29%29.95 "HgN/A
1:30 PM90 °FSunny.5 mph29%29.95 "Hg10 mi
1:00 PM88 °FPassing clouds.3 mph33%29.95 "HgN/A
12:30 PM86 °FSunny.5 mph38%29.95 "Hg10 mi
12:00 PM84 °FSunny.6 mph40%29.98 "Hg10 mi
11:30 AM82 °FSunny.5 mph42%29.98 "Hg10 mi
11:00 AM81 °FPassing clouds.6 mph48%29.98 "HgN/A
10:00 AM77 °FPassing clouds.6 mph57%29.98 "HgN/A
9:30 AM75 °FSunny.3 mph61%29.98 "Hg10 mi
9:00 AM73 °FSunny.3 mph69%29.98 "Hg10 mi
8:00 AM70 °FSunny.6 mph83%29.98 "Hg10 mi
6:00 AM66 °FScattered clouds.3 mph88%29.98 "HgN/A
5:30 AM66 °FPassing clouds.6 mph88%29.98 "HgN/A
5:00 AM68 °FPassing clouds.6 mph83%29.98 "HgN/A
4:30 AM68 °FClear.7 mph78%29.95 "Hg10 mi
4:00 AM68 °FClear.7 mph78%29.95 "Hg10 mi
3:30 AM68 °FClear.7 mph78%29.98 "Hg10 mi
3:00 AM70 °FClear.7 mph69%29.98 "Hg10 mi
2:30 AM70 °FClear.9 mph69%29.98 "Hg10 mi
2:00 AM72 °FClear.10 mph65%29.98 "Hg10 mi
1:30 AM72 °FClear.8 mph69%29.98 "Hg10 mi
1:00 AM73 °FClear.8 mph61%29.98 "Hg10 mi
12:30 AM73 °FClear.9 mph65%29.98 "Hg10 mi
12:00 AM75 °FClear.7 mph61%30.01 "Hg10 mi
Weather by CustomWeather, © 2014

See weather overviewHow to use our weather pages